Location: *
(1.3500°S, 147.5000°W)
Time: 19:45:07
(UTC+00:00)

STARLINK-1076 - Pass Details

Date: 07 April 2020
Orbit: 548 x 551 km, 53.0° (Epoch: 28 May)

Event Time Altitude Azimuth Distance (km) Brightness Sun altitude
Rises 04:34:58 0° 320° (NW) 2,702 7.9 -10.8°
Reaches altitude 10° 04:37:13 10° 317° (NW) 1,812 7.0 -11.4°
Maximum altitude 04:41:17 61° 236° (SW) 624 4.1 -12.4°
Drops below altitude 10° 04:45:22 10° 155° (SSE) 1,818 6.0 -13.4°
Enters shadow 04:46:18 - 154° (SSE) 2,188 6.4 -13.6°
